Weather History for Wrangell, AK

Change the Weather History Date:

Saturday, March 16, 2013

  Actual Average Record
Temperature  
Mean Temperature 29 °F -  
Max Temperature 32 °F 43 °F 54 °F (1990)
Min Temperature 26 °F 30 °F 12 °F (2006)
Degree Days  
Heating Degree Days 36    
Moisture  
Dew Point 22 °F    
Average Humidity 77    
Maximum Humidity 86    
Minimum Humidity 69    
Precipitation  
Precipitation 0.08 in - - ()
Sea Level Pressure  
Sea Level Pressure 29.99 in    
Wind  
Wind Speed 4 mph (NW)    
Max Wind Speed 12 mph    
Max Gust Speed -    
Visibility 10 miles    
Events      
Averages and records for this station are not official NWS values.
T = Trace of Precipitation, MM = Missing Value Source: NWS Daily Summary

Daily Weather History Graph

Daily Weather History Graph

Search for Another Location

Airport:

Trip Planner

Search our weather history database for the weather conditions in past years. The results will help you decide how hot, cold, wet, or windy it might be!

Date:

Astronomy

Mar. 16, 2013 Rise Set
Actual Time 7:01 AM AKDT 6:55 PM AKDT
Civil Twilight 6:23 AM AKDT 7:33 PM AKDT
Nautical Twilight 5:39 AM AKDT 8:17 PM AKDT
Astronomical Twilight 4:52 AM AKDT 9:04 PM AKDT
Moon 8:37 AM AKDT (3/16) 12:11 AM AKDT (3/16)
Length of Visible Light 13h 09m
Length of Day
11h 54m
Waxing Crescent, 24% of the Moon is Illuminated
Mar 16
Waxing Crescent
Mar 19
First Quarter
Mar 27
Full
Apr 2
Last Quarter
Apr 10
New

Hourly Weather History & Observations

Time (AKDT) Temp. Windchill Dew Point Humidity Pressure Visibility Wind Dir Wind Speed Gust Speed Precip Events Conditions
12:16 AM 26.6 °F 22.6 °F 23.0 °F 86% 30.01 in 10.0 mi North 3.5 mph - N/A   Overcast
12:36 AM 26.6 °F 20.0 °F 23.0 °F 86% 30.02 in 10.0 mi NNW 5.8 mph - N/A   Overcast
12:56 AM 26.6 °F 20.0 °F 21.2 °F 80% 30.03 in 10.0 mi NNW 5.8 mph - N/A   Overcast
1:16 AM 26.6 °F - 23.0 °F 86% 30.03 in 10.0 mi Calm Calm - N/A   Overcast
1:36 AM 28.4 °F - 23.0 °F 80% 30.03 in 10.0 mi Calm Calm - N/A   Overcast
1:56 AM 28.4 °F 24.6 °F 23.0 °F 80% 30.03 in 10.0 mi West 3.5 mph - N/A   Overcast
2:16 AM 28.4 °F 24.6 °F 23.0 °F 80% 30.03 in 10.0 mi North 3.5 mph - N/A   Overcast
2:36 AM 28.4 °F 24.6 °F 24.8 °F 86% 30.02 in 10.0 mi NE 3.5 mph - N/A   Overcast
2:56 AM 28.4 °F 24.6 °F 23.0 °F 80% 30.03 in 10.0 mi WSW 3.5 mph - N/A   Overcast
3:16 AM 28.4 °F 23.3 °F 23.0 °F 80% 30.02 in 10.0 mi NNW 4.6 mph - N/A   Overcast
3:36 AM 28.4 °F 22.2 °F 23.0 °F 80% 30.01 in 10.0 mi NW 5.8 mph - N/A   Overcast
3:56 AM 28.4 °F 23.3 °F 23.0 °F 80% 30.01 in 10.0 mi NW 4.6 mph - N/A   Overcast
4:16 AM 28.4 °F 22.2 °F 23.0 °F 80% 30.01 in 10.0 mi NNW 5.8 mph - N/A   Overcast
4:36 AM 28.4 °F 22.2 °F 23.0 °F 80% 30.01 in 10.0 mi North 5.8 mph - N/A   Overcast
4:56 AM 28.4 °F 21.2 °F 23.0 °F 80% 30.00 in 10.0 mi North 6.9 mph - N/A   Overcast
5:16 AM 28.4 °F 22.2 °F 21.2 °F 74% 30.00 in 10.0 mi NNW 5.8 mph - N/A   Overcast
5:36 AM 28.4 °F 24.6 °F 21.2 °F 74% 30.00 in 10.0 mi South 3.5 mph - N/A   Overcast
5:56 AM 28.4 °F 21.2 °F 21.2 °F 74% 30.00 in 10.0 mi NW 6.9 mph - N/A   Overcast
6:16 AM 28.4 °F - 21.2 °F 74% 30.00 in 10.0 mi Calm Calm - N/A   Overcast
6:36 AM 28.4 °F 24.6 °F 21.2 °F 74% 30.00 in 10.0 mi SW 3.5 mph - N/A   Overcast
6:56 AM 26.6 °F 22.6 °F 21.2 °F 80% 30.00 in 10.0 mi SSE 3.5 mph - N/A   Mostly Cloudy
7:16 AM 26.6 °F 22.6 °F 21.2 °F 80% 30.00 in 10.0 mi SSE 3.5 mph - N/A   Mostly Cloudy
7:36 AM 26.6 °F - 21.2 °F 80% 30.00 in 10.0 mi Calm Calm - N/A   Mostly Cloudy
7:56 AM 26.6 °F - 21.2 °F 80% 30.00 in 10.0 mi Calm Calm - N/A   Mostly Cloudy
8:16 AM 26.6 °F - 21.2 °F 80% 30.00 in 10.0 mi Calm Calm - N/A   Mostly Cloudy
8:36 AM 28.4 °F 22.2 °F 21.2 °F 74% 30.00 in 10.0 mi NNW 5.8 mph - N/A   Mostly Cloudy
8:56 AM 28.4 °F 24.6 °F 21.2 °F 74% 30.00 in 10.0 mi North 3.5 mph - N/A   Mostly Cloudy
9:16 AM 28.4 °F - 23.0 °F 80% 30.00 in 10.0 mi Calm Calm - N/A   Mostly Cloudy
9:36 AM 28.4 °F 22.2 °F 23.0 °F 80% 30.00 in 10.0 mi North 5.8 mph - 0.01 in   Mostly Cloudy
9:56 AM 28.4 °F 23.3 °F 23.0 °F 80% 30.00 in 10.0 mi North 4.6 mph - 0.01 in   Mostly Cloudy
10:16 AM 28.4 °F - 21.2 °F 74% 29.99 in 10.0 mi Calm Calm - N/A   Mostly Cloudy
10:36 AM 28.4 °F 24.6 °F 21.2 °F 74% 30.00 in 10.0 mi North 3.5 mph - 0.01 in   Mostly Cloudy
10:56 AM 28.4 °F - 23.0 °F 80% 30.00 in 10.0 mi Calm Calm - 0.02 in   Mostly Cloudy
11:16 AM 28.4 °F 23.3 °F 23.0 °F 80% 30.00 in 10.0 mi NNW 4.6 mph - 0.01 in   Mostly Cloudy
11:36 AM 28.4 °F 22.2 °F 21.2 °F 74% 30.00 in 10.0 mi NNW 5.8 mph - 0.01 in   Mostly Cloudy
11:56 AM 28.4 °F 24.6 °F 21.2 °F 74% 30.00 in 10.0 mi NW 3.5 mph - 0.02 in   Overcast
12:16 PM 28.4 °F 24.6 °F 21.2 °F 74% 30.00 in 10.0 mi NW 3.5 mph - N/A   Overcast
12:36 PM 28.4 °F 24.6 °F 21.2 °F 74% 30.00 in 10.0 mi WNW 3.5 mph - 0.01 in   Overcast
12:56 PM 28.4 °F 22.2 °F 21.2 °F 74% 29.99 in 10.0 mi NW 5.8 mph - 0.01 in   Overcast
1:16 PM 30.2 °F 25.4 °F 21.2 °F 69% 29.99 in 10.0 mi WNW 4.6 mph - N/A   Overcast
1:36 PM 30.2 °F 25.4 °F 21.2 °F 69% 29.99 in 10.0 mi West 4.6 mph - 0.01 in   Overcast
1:56 PM 30.2 °F 26.7 °F 23.0 °F 75% 29.99 in 10.0 mi West 3.5 mph - 0.01 in   Overcast
2:16 PM 30.2 °F 26.7 °F 21.2 °F 69% 29.99 in 10.0 mi SW 3.5 mph - 0.01 in   Overcast
2:36 PM 30.2 °F 23.4 °F 24.8 °F 80% 29.99 in 10.0 mi WNW 6.9 mph - 0.01 in   Overcast
2:56 PM 30.2 °F 25.4 °F 24.8 °F 80% 29.98 in 10.0 mi NW 4.6 mph - 0.01 in   Overcast
3:16 PM 30.2 °F 26.7 °F 24.8 °F 80% 29.98 in 10.0 mi NNW 3.5 mph - N/A   Overcast
3:36 PM 30.2 °F 24.3 °F 24.8 °F 80% 29.98 in 10.0 mi NW 5.8 mph - N/A   Overcast
3:56 PM 32.0 °F 28.7 °F 24.8 °F 75% 29.98 in 10.0 mi NW 3.5 mph - N/A   Overcast
4:16 PM 32.0 °F 28.7 °F 24.8 °F 75% 29.98 in 10.0 mi WNW 3.5 mph - N/A   Overcast
4:36 PM 32.0 °F 27.5 °F 24.8 °F 75% 29.97 in 10.0 mi NW 4.6 mph - N/A   Overcast
4:56 PM 32.0 °F 25.6 °F 24.8 °F 75% 29.97 in 10.0 mi NW 6.9 mph - N/A   Overcast
5:16 PM 32.0 °F 25.6 °F 24.8 °F 75% 29.96 in 10.0 mi WNW 6.9 mph - N/A   Overcast
5:36 PM 30.2 °F 23.4 °F 24.8 °F 80% 29.96 in 10.0 mi NW 6.9 mph - N/A   Overcast
5:56 PM 30.2 °F 22.6 °F 24.8 °F 80% 29.96 in 10.0 mi WNW 8.1 mph - N/A   Mostly Cloudy
6:16 PM 30.2 °F 23.4 °F 24.8 °F 80% 29.96 in 10.0 mi WNW 6.9 mph - N/A   Mostly Cloudy
6:36 PM 30.2 °F 24.3 °F 24.8 °F 80% 29.96 in 10.0 mi NW 5.8 mph - N/A   Mostly Cloudy
6:56 PM 30.2 °F 23.4 °F 24.8 °F 80% 29.96 in 10.0 mi NW 6.9 mph - N/A   Mostly Cloudy
7:16 PM 30.2 °F 23.4 °F 23.0 °F 75% 29.96 in 10.0 mi NW 6.9 mph - N/A   Mostly Cloudy
7:36 PM 30.2 °F 23.4 °F 23.0 °F 75% 29.97 in 10.0 mi WNW 6.9 mph - N/A   Mostly Cloudy
7:56 PM 30.2 °F 22.6 °F 23.0 °F 75% 29.97 in 10.0 mi NW 8.1 mph - N/A   Scattered Clouds
8:16 PM 30.2 °F 22.6 °F 21.2 °F 69% 29.97 in 10.0 mi NW 8.1 mph - N/A   Scattered Clouds
8:36 PM 28.4 °F 19.7 °F 19.4 °F 69% 29.97 in 10.0 mi West 9.2 mph - N/A   Scattered Clouds
8:56 PM 30.2 °F 21.3 °F 21.2 °F 69% 29.97 in 10.0 mi NW 10.4 mph - N/A   Scattered Clouds
9:16 PM 30.2 °F 22.6 °F 21.2 °F 69% 29.98 in 10.0 mi NW 8.1 mph - N/A   Scattered Clouds
9:36 PM 28.4 °F 19.7 °F 21.2 °F 74% 29.98 in 10.0 mi NNW 9.2 mph - N/A   Scattered Clouds
9:56 PM 28.4 °F 18.5 °F 21.2 °F 74% 29.98 in 10.0 mi NW 11.5 mph - N/A   Overcast
10:16 PM 28.4 °F 19.7 °F 21.2 °F 74% 29.99 in 10.0 mi NW 9.2 mph - N/A   Overcast
10:36 PM 28.4 °F 21.2 °F 21.2 °F 74% 29.99 in 10.0 mi NW 6.9 mph - N/A   Overcast
10:56 PM 28.4 °F 20.4 °F 19.4 °F 69% 29.99 in 10.0 mi West 8.1 mph - N/A   Overcast
11:16 PM 28.4 °F 19.7 °F 19.4 °F 69% 29.99 in 10.0 mi WNW 9.2 mph - N/A   Scattered Clouds
11:36 PM 28.4 °F 19.7 °F 21.2 °F 74% 30.00 in 10.0 mi NW 9.2 mph - N/A   Mostly Cloudy
11:56 PM 28.4 °F 19.7 °F 19.4 °F 69% 30.00 in 10.0 mi NW 9.2 mph - N/A   Overcast